User: anonymous   Login
Location: Unspecified
(0.0000°N, 0.0000°E)
Time: 00:07:37
(UTC+00:00)
Language:

DRAGON CRS-9 - Orbit

View from above orbital plane
View from above orbital plane
View from above satellite
View from above satellite

Ground track
Ground track

The orbit data is extracted from the following two-line orbital elements,

1 41672U 16046A   16238.56759634 +.00008390 +00000-0 +13289-3 0  9998
2 41672 051.6455 071.8205 0002923 237.0552 194.2778 15.54325716005979
Epoch (UTC): 25 August 2016 13:37:20
Eccentricity: 0.0002923
inclination: 51.6455°
perigee height: 402 km
apogee height: 406 km
right ascension of ascending node: 71.8205°
argument of perigee: 237.0552°
revolutions per day: 15.54325716
mean anomaly at epoch: 194.2778°
orbit number at epoch: 597

The dashed part of the orbit path shows where the satellite is in the earth's shadow,  

DLR